Location: Chandrammap?lem
(16.9200°N, 81.0051°E)
Time: 20:54:50
(UTC+00:00)

Nadezhda 3 Rocket - Pass Details

Date: 29 May 2024
Orbit: 956 x 998 km, 82.9° (Epoch: 14 June)

Event Time Altitude Azimuth Distance (km) Brightness Sun altitude
Rises 21:40:33 0° 350° (N) 3,693 7.4 -30.0°
Reaches altitude 10° 21:43:06 10° 346° (NNW) 2,738 6.6 -29.6°
Enters shadow 21:48:13 53° 308° (NW) 1,187 4.3 -28.6°
